Location: Newark
(41.9000°N, 12.4833°E)
Time: 18:39:05
(UTC+00:00)

EO-88 - Pass Details

Date: 26 May 2019
Orbit: 484 x 494 km, 97.4° (Epoch: 25 June)

Event Time Altitude Azimuth Distance (km) Brightness Sun altitude
Exits shadow 19:29:18 - 96° (E) 1,806 ? -9.3°
Reaches altitude 10° 19:29:54 10° 88° (E) 1,693 ? -9.4°
Maximum altitude 19:31:18 12° 65° (ENE) 1,576 ? -9.6°
Drops below altitude 10° 19:32:44 10° 42° (NE) 1,699 ? -9.8°
Sets 19:35:57 0° 10° (N) 2,588 ? -10.3°
